Showing default

GUANGCHUAN 02, 62112

Orbit data source: Space-Track

GUANGCHUAN 02, 62112 is a payload satellite owned by Hongqing Keji (CN) in LEO that was launched on Wed, 27 Nov 2024 UTC via a ZHUQUE-2E launch vehicle from the Jiuquan Satellite Launch Center, China (JSC). Payload-class satellites include a variety of spacecraft equipped with specific instruments for various scientific and technological missions. These include communications satellites like Starlink; space stations such as the ISS; scientific satellites like the Hubble; Earth observation satellites from companies like Planet Labs, Umbra, and HawkEye 360; GPS; miniature CubeSats for education and research; and military/defense satellites.

Loading next visibility...
Identifier
62112, 2024-221B
Orbit
LEO
Country
Flag of CNCN / PRC
Related business
Manufacturer
CAST?
Mission
Operational Commercial Communications
Bus & Motor
HQ, Unknown motor
Mass
~500 kg wet, ~500 kg dry
Launch date (UTC)
2024-11-27 (11 months ago)
Launch vehicle
ZHUQUE-2E
Launch site
Jiuquan Satellite Launch Center, China (JSC)
Object type
Payload
Rocket body
Debris
Shape & HBR
Box + 2 Pan, 3.0 m
Radar Cross Section
4.560 m², Large (>1 m²)

Expand to show TLE details & history
Last TLE update: 9 hours ago

TLE from 9 hours ago
0 GUANGCHUAN 02
1 62112U 24221B   25296.69934869  .00007805  00000-0  42657-3 0  9998
2 62112  49.9428 234.6761 0007317 109.5590 250.6152 15.15100109 50319
Epoch: 2025-10-23T16:47Z
TLE epoch observation values (Epoch: 2025-10-23T16:47:03.726Z)
Latitude
0.00001°
Longitude
-49.44427°
Altitude
522.899 km
Speed
7.602 km/s
True Right ascension
15h 38m 42s
True Declination
0° 00' 00"
Sunlit
Object was in daylight at epoch
Visualization orbit readout
Latitude
Unknown
Longitude
Unknown
Altitude
Unknown
Speed
Unknown
Apparent Right ascension
Unknown
Apparent Declination
Unknown
Sunlit
N/A
Visualization observer readout
Local Sidereal Time
20:30:22
Azimuth
Unknown
Elevation
Unknown
Doppler factor
Unknown
Orbital elements
Apogee altitude
526.501 km
Perigee altitude
516.404 km
Semi-major axis
6,899.59 km
Eccentricity
0.00073
Inclination
49.9428°
RAAN
234.6761°
Arg. of periapsis
109.559°
True anomaly
250.53613°
Mean anomaly
250.6152°
Eccentric anomaly
250.57566°
Mean motion
3.78711 °/min
Orbital period
95.06 mins
BSTAR
0.00042657
Loading maneuver chart data...
Computing Atmospheric mass density...
Loading historical data...
Loading historical data...
Loading historical data...
Loading historical data...
Loading historical data...
Loading historical data...
Loading historical data...
Other satellites on launch #221 in the year 2024 (2024-11-27 UTC)

Documentation

Showing up to 5 results
|